Location: Bailleul
(50.3375°N, 2.8513°E)
Time: 14:12:08
(UTC+00:00)

GP-B - Pass Details

Date: 16 June 2021
Orbit: 631 x 635 km, 89.8° (Epoch: 04 August)

Event Time Altitude Azimuth Distance (km) Brightness Sun altitude
Rises 23:28:14 0° 6° (N) 2,948 8.2 -16.1°
Reaches altitude 10° 23:30:33 10° 13° (NNE) 2,034 6.9 -16.2°
Maximum altitude 23:34:51 45° 86° (E) 876 3.8 -16.2°
Enters shadow 23:37:05 25° 145° (SE) 1,296 4.2 -16.2°
